[[{"header":{"parameterUnit":"m.s-1","parameterCategory":1,"la1":30.2991,"la2":30.254,"lo1":-89.0895,"lo2":-89.0444,"dy":0.0017,"dx":0.0017,"nx":28,"ny":28,"refTime":"2025-11-07T09:00:00:Z","depth":0,"parameterNumber":2,"parameterNumberName":"U-component_of_WINDS"},"data":[0,0,0,0,0,0,0,0,0,0,0,0,0,0,0,0,0,0,0,0,0,0,0,0,0,0,0,0,0,0,0,0,0,0,0,0,0,0,0,0,0,0,0,0,0,0,0,0,0,0,0,0,0,0,0,0,0,0,1.6486,1.6488,0,1.6633,1.6635,1.6636,1.6673,1.6672,1.6671,1.667,1.6823,1.6828,1.6833,0,0,0,0,0,0,0,0,0,0,0,0,0,1.624,1.6244,1.6486,1.6488,1.649,1.6633,1.6635,1.6637,1.6673,1.6672,1.667,1.6669,1.6821,1.6827,1.6833,0,0,0,0,0,0,0,0,0,0,0,0,0,1.6363,1.6245,1.6486,1.6525,1.653,1.6632,1.6635,1.6637,1.6673,1.6671,1.667,1.6669,1.682,1.6827,1.6834,1.6909,0,0,1.6857,1.686,0,0,0,0,0,0,0,0,1.6356,1.6372,1.6517,1.6522,1.6528,1.6633,1.6604,1.6729,1.6673,1.6619,1.667,1.6668,1.6761,1.6773,1.6804,1.6917,1.6923,1.6858,1.6862,1.6865,1.6868,0,0,0,0,0,0,0,1.6347,1.6366,1.6544,1.6519,1.6526,1.6536,1.6552,1.6628,1.6696,1.6623,1.6626,1.6643,1.6764,1.6797,1.6808,1.6925,1.6857,1.6864,1.6869,1.6872,1.7108,1.711,0,0,0,0,0,0,1.6331,1.6358,1.654,1.6549,1.6436,1.6542,1.6559,1.6601,1.6696,1.6709,1.6644,1.6644,1.6785,1.6799,1.6814,1.6909,1.6865,1.6872,1.6877,1.7106,1.7108,1.711,0,0,0,0,0,0,1.6326,1.6347,1.6534,1.6454,1.6479,1.6547,1.6594,1.6604,1.6638,1.6711,1.6724,1.6665,1.6784,1.6803,1.6885,1.6915,1.6876,1.6883,1.7104,1.7107,1.7109,1.7099,0,0,0,0,0,0,1.6319,1.6345,1.6374,1.6455,1.6483,1.6602,1.6595,1.6608,1.665,1.6651,1.6734,1.6747,1.6785,1.6874,1.6893,1.6924,1.6888,1.7102,1.7105,1.7109,1.7097,1.7101,1.7105,0,0,0,0,0,1.631,1.6365,1.6375,1.6396,1.652,1.6604,1.662,1.6661,1.6652,1.6682,1.6729,1.6744,1.6908,1.6882,1.6904,1.6938,1.71,1.7104,1.7108,1.7096,1.71,1.7104,0,0,0,0,0,0,1.6287,1.6377,1.6388,1.6471,1.6529,1.6609,1.6648,1.6665,1.6728,1.6727,1.6777,1.6795,1.6874,1.6914,1.6884,1.7016,1.7004,1.7013,1.6987,1.6992,1.6996,1.6985,1.6895,0,0,0,0,0,1.6291,1.6351,1.6426,1.6492,1.6521,1.6579,1.6617,1.6644,1.6707,1.6732,1.6786,1.6847,1.6912,1.6954,1.7019,1.7103,1.7122,1.7137,1.7141,1.7143,1.715,1.7199,1.7207,1.7124,1.7124,1.7124,0,0,1.6301,1.6358,1.6392,1.6489,1.6537,1.6599,1.66,1.6665,1.6712,1.6742,1.6823,1.6865,1.6936,1.702,1.706,1.7056,1.7178,1.7148,1.715,1.7156,1.7204,1.7212,1.7219,1.7126,1.7126,1.7125,0,0,1.6351,1.6399,1.646,1.6508,1.6581,1.662,1.6634,1.6712,1.674,1.6822,1.6847,1.6903,1.7014,1.7065,1.7105,1.7174,1.719,1.7194,1.7213,1.726,1.7267,1.7273,1.7299,1.7307,1.72,1.72,1.72,0,1.6355,1.6448,1.649,1.6554,1.6596,1.6626,1.6688,1.6733,1.6824,1.6853,1.6847,1.6987,1.7038,1.7134,1.7151,1.7182,1.7201,1.7185,1.7262,1.7269,1.7275,1.73,1.731,1.72,1.72,1.72,1.72,0,1.645,1.6514,1.6554,1.664,1.6687,1.675,1.6802,1.6844,1.6867,1.6907,1.699,1.7051,1.7129,1.7154,1.7177,1.7254,1.7249,1.7252,1.7241,1.7282,1.7307,1.7317,1.72,1.72,1.72,1.72,0,0,1.649,1.6598,1.6612,1.6651,1.6734,1.6785,1.6849,1.6924,1.696,1.7021,1.7078,1.7171,1.7175,1.722,1.7249,1.729,1.7343,1.7288,1.7291,1.7297,1.7433,1.7431,1.7441,1.7353,1.7355,1.7357,1.7427,0,1.6552,1.6667,1.6707,1.6803,1.6863,1.6892,1.6949,1.7006,1.7044,1.7102,1.7145,1.7211,1.721,1.7238,1.7279,1.7327,1.7371,1.7322,1.7408,1.741,1.739,1.7454,1.7452,1.7516,1.7437,1.7438,1.744,0,1.6639,1.67,1.6802,1.6877,1.6904,1.6954,1.7026,1.708,1.7146,1.7172,1.7222,1.7248,1.7318,1.7302,1.7401,1.7367,1.7404,1.7433,1.7437,1.7447,1.7428,1.7467,1.7537,1.7547,1.7455,1.7454,1.7453,0,1.6659,1.6768,1.6843,1.6876,1.6965,1.7,1.7039,1.7103,1.7145,1.7209,1.7237,1.7308,1.7347,1.7402,1.7447,1.7431,1.7542,1.7529,1.7566,1.7565,1.7589,1.7587,1.7666,1.7611,1.761,1.761,1.761,0,1.6724,1.6786,1.6854,1.69,1.697,1.7015,1.7084,1.7125,1.7182,1.7237,1.7267,1.7319,1.7374,1.7434,1.747,1.7546,1.7563,1.7587,1.7596,1.7585,1.7582,1.7611,1.7608,1.7613,1.7612,1.7612,1.7611,0,1.676,1.6808,1.6892,1.6969,1.699,1.7038,1.7105,1.7152,1.7191,1.7262,1.7281,1.7343,1.7415,1.7465,1.7557,1.7582,1.7665,1.7672,1.7642,1.7647,1.7681,1.7678,1.7783,1.7799,1.7731,1.7732,1.7732,0,1.6799,1.6847,1.6929,1.6968,1.7007,1.7069,1.7112,1.7159,1.7203,1.7282,1.7319,1.7393,1.7454,1.7567,1.7622,1.7693,1.7704,1.7736,1.7715,1.7703,1.7706,1.7703,1.7709,1.7739,1.774,1.774,1.7741,0,1.6863,1.6884,1.6945,1.7015,1.7066,1.7123,1.718,1.7211,1.7267,1.7316,1.7389,1.7436,1.753,1.7604,1.768,1.7722,1.7741,1.7746,1.7759,1.7749,1.773,1.7742,1.7652,1.7744,1.7744,1.7744,1.7743,1.7743,1.6903,1.6947,1.7012,1.7079,1.7127,1.718,1.7228,1.7273,1.7334,1.7414,1.7438,1.7514,1.758,1.7684,1.7727,1.7788,1.7786,1.7804,1.7808,1.7812,1.7813,1.7719,1.7802,1.7802,1.7802,1.7802,1.7802,0,1.697,1.7013,1.7074,1.7153,1.7206,1.7218,1.7283,1.7327,1.7393,1.7452,1.7512,1.7596,1.7667,1.7727,1.7801,1.7839,1.785,1.7857,1.7855,1.7865,1.781,1.7792,1.7847,1.7847,1.7847,1.7847,1.7847,1.7847,1.7011,1.7087,1.7116,1.7216,1.7259,1.7333,1.7369,1.7418,1.7466,1.7558,1.7617,1.7655,1.7715,1.7794,1.786,1.7876,1.7902,1.7907,1.7926,1.7873,1.7868,1.7863,1.7847,1.7912,1.7912,1.7976,1.7976,1.7977]},{"header":{"parameterUnit":"m.s-1","parameterCategory":1,"la1":30.2991,"la2":30.254,"lo1":-89.0895,"lo2":-89.0444,"dy":0.0017,"dx":0.0017,"nx":28,"ny":28,"refTime":"2025-11-07T09:00:00:Z","depth":0,"parameterNumber":3,"parameterNumberName":"V-component_of_WINDS"},"data":[0,0,0,0,0,0,0,0,0,0,0,0,0,0,0,0,0,0,0,0,0,0,0,0,0,0,0,0,0,0,0,0,0,0,0,0,0,0,0,0,0,0,0,0,0,0,0,0,0,0,0,0,0,0,0,0,0,0,1.7047,1.7047,0,1.7058,1.7058,1.7058,1.7041,1.704,1.7039,1.7039,1.7048,1.7049,1.705,0,0,0,0,0,0,0,0,0,0,0,0,0,1.7009,1.701,1.7047,1.7047,1.7047,1.7058,1.7058,1.7058,1.7041,1.704,1.7039,1.7039,1.7048,1.7049,1.705,0,0,0,0,0,0,0,0,0,0,0,0,0,1.7023,1.701,1.7047,1.704,1.7039,1.7058,1.7058,1.7058,1.7041,1.704,1.7039,1.7038,1.7048,1.7049,1.705,1.7075,0,0,1.7054,1.7054,0,0,0,0,0,0,0,0,1.7022,1.7025,1.7041,1.704,1.704,1.7047,1.7048,1.7064,1.7041,1.704,1.7039,1.7038,1.7048,1.705,1.7053,1.7076,1.7076,1.7054,1.7055,1.7055,1.7055,0,0,0,0,0,0,0,1.7022,1.7024,1.7051,1.7041,1.704,1.7035,1.7037,1.7051,1.7049,1.704,1.7039,1.7041,1.7048,1.7052,1.7053,1.7076,1.7054,1.7055,1.7056,1.7056,1.7119,1.712,0,0,0,0,0,0,1.7022,1.7023,1.7051,1.7051,1.7029,1.7037,1.7038,1.7046,1.7049,1.7049,1.7041,1.704,1.7051,1.7052,1.7054,1.7084,1.7055,1.7056,1.7057,1.7118,1.7119,1.712,0,0,0,0,0,0,1.7021,1.7024,1.705,1.7037,1.704,1.7038,1.7047,1.7046,1.7051,1.705,1.7049,1.7046,1.705,1.7052,1.707,1.7084,1.7057,1.7058,1.7117,1.7119,1.712,1.7144,0,0,0,0,0,0,1.702,1.7024,1.7034,1.7037,1.7041,1.7067,1.7048,1.7047,1.7053,1.7051,1.7054,1.7054,1.705,1.7068,1.7071,1.7085,1.7059,1.7116,1.7118,1.7119,1.7142,1.7146,1.7149,0,0,0,0,0,1.7019,1.704,1.7035,1.7038,1.7053,1.7068,1.707,1.7065,1.7054,1.7064,1.7063,1.7054,1.7082,1.707,1.7073,1.7088,1.7115,1.7117,1.7119,1.714,1.7145,1.7149,0,0,0,0,0,0,1.7038,1.704,1.7035,1.7058,1.7063,1.7065,1.7077,1.707,1.7078,1.7076,1.7069,1.7069,1.7089,1.709,1.7077,1.7112,1.7096,1.7099,1.7111,1.7116,1.7119,1.7119,1.706,0,0,0,0,0,1.7045,1.7057,1.7058,1.7079,1.7081,1.7079,1.7085,1.7081,1.7086,1.7087,1.7088,1.7093,1.7102,1.7109,1.7118,1.7141,1.7142,1.7152,1.7156,1.7159,1.7162,1.7175,1.718,1.7128,1.7128,1.7127,0,0,1.7059,1.7062,1.707,1.7083,1.7086,1.7098,1.7081,1.7095,1.7104,1.7089,1.7107,1.7107,1.7112,1.7133,1.7142,1.7134,1.7177,1.7162,1.7165,1.7166,1.7178,1.7183,1.7187,1.7129,1.7129,1.7129,0,0,1.7092,1.7096,1.7113,1.7117,1.7123,1.7121,1.7125,1.7128,1.7128,1.7146,1.7135,1.7145,1.7162,1.7166,1.717,1.7204,1.7195,1.7206,1.7227,1.7239,1.7243,1.7247,1.7259,1.7264,1.7209,1.7209,1.7209,0,1.711,1.7129,1.7123,1.7138,1.7143,1.7131,1.7149,1.7152,1.716,1.7164,1.7155,1.7176,1.7178,1.72,1.7208,1.7212,1.7216,1.7207,1.7243,1.7247,1.725,1.7262,1.7267,1.721,1.721,1.721,1.721,0,1.715,1.7163,1.7176,1.7185,1.7192,1.7208,1.7204,1.7211,1.7206,1.7205,1.7223,1.7225,1.7234,1.7238,1.7233,1.7259,1.7254,1.7244,1.7229,1.7257,1.7268,1.7272,1.7212,1.7212,1.7212,1.7211,0,0,1.7196,1.7201,1.7206,1.721,1.7215,1.7225,1.724,1.7249,1.7256,1.7261,1.7274,1.7288,1.7279,1.7284,1.7279,1.7289,1.7317,1.7278,1.7278,1.7286,1.7346,1.7354,1.736,1.7311,1.7312,1.7312,1.7346,0,1.7229,1.7256,1.7251,1.7277,1.7289,1.7278,1.7291,1.7295,1.7294,1.7303,1.7302,1.7313,1.7299,1.7302,1.7312,1.7311,1.7329,1.7309,1.7322,1.7323,1.7323,1.7366,1.7374,1.7406,1.735,1.7351,1.7352,0,1.7272,1.728,1.7308,1.7311,1.7316,1.7328,1.7336,1.7345,1.7349,1.7348,1.7353,1.7346,1.736,1.7343,1.7363,1.735,1.7354,1.7355,1.7356,1.7358,1.734,1.7369,1.7416,1.7421,1.7358,1.7358,1.7357,0,1.7304,1.7321,1.734,1.7344,1.7348,1.7356,1.7358,1.7362,1.7368,1.7374,1.7378,1.7386,1.7391,1.7397,1.7392,1.7381,1.7413,1.7396,1.7412,1.7412,1.742,1.742,1.747,1.7422,1.7422,1.7422,1.7422,0,1.7343,1.736,1.7355,1.7366,1.7385,1.7379,1.7398,1.7398,1.7401,1.7412,1.7402,1.7412,1.7405,1.7414,1.741,1.7427,1.7429,1.7428,1.7427,1.743,1.743,1.7434,1.7432,1.7423,1.7423,1.7423,1.7422,0,1.7382,1.7379,1.7399,1.7401,1.7402,1.7416,1.7417,1.7428,1.7426,1.744,1.7443,1.744,1.7451,1.7446,1.7457,1.7454,1.7477,1.7472,1.7476,1.7475,1.7492,1.7491,1.7546,1.7553,1.75,1.7501,1.7501,0,1.7407,1.742,1.7424,1.7431,1.7434,1.7445,1.7451,1.7445,1.7452,1.7458,1.7467,1.7477,1.7485,1.7503,1.7501,1.751,1.7506,1.7525,1.7507,1.751,1.7507,1.7507,1.7508,1.7529,1.7529,1.753,1.753,0,1.7452,1.745,1.746,1.7469,1.7477,1.7484,1.749,1.7496,1.749,1.7498,1.7509,1.7515,1.7527,1.7537,1.7544,1.7546,1.7537,1.7536,1.754,1.7543,1.7545,1.7545,1.7486,1.7535,1.7534,1.7534,1.7534,1.7533,1.7486,1.7497,1.7502,1.7513,1.7517,1.7522,1.7532,1.7532,1.7541,1.7551,1.7546,1.7559,1.7563,1.7572,1.7574,1.7584,1.7577,1.7583,1.7585,1.7587,1.7589,1.7543,1.7585,1.7585,1.7585,1.7585,1.7585,0,1.7531,1.7533,1.7544,1.7553,1.7561,1.7552,1.7558,1.7566,1.7578,1.7582,1.759,1.7603,1.7613,1.7612,1.7621,1.7629,1.7625,1.7631,1.7631,1.7632,1.7595,1.7591,1.7634,1.7634,1.7634,1.7634,1.7634,1.7634,1.7556,1.7575,1.7573,1.7594,1.7595,1.7609,1.7613,1.7618,1.7621,1.7637,1.7645,1.7644,1.7646,1.7655,1.7663,1.7663,1.7667,1.7675,1.7673,1.7639,1.7634,1.763,1.7626,1.7676,1.7676,1.7709,1.7709,1.7709]}]]